Temp
-26 -26 -26 -26 -26 -26 -26 -26 -26 -26 -26 -26 -26 -26 -26 -26 -26 -26 -26 -26 -26 -27 -28 -28 -28 -29 -29 -29 -29 -29 -29 -28 -28 -28 -28 -27 -27 -27 -27 -26 -26 -26 -25 -25 -25 -24 -24 -23 -23 -23 -22 -21 -21 -20
-27 -27 -27 -26 -26 -26 -26 -26 -26 -27 -27 -27 -27 -27 -27 -27 -26 -26 -27 -27 -28 -28 -29 -29 -29 -30 -30 -30 -29 -29 -29 -29 -28 -28 -28 -27 -27 -27 -27 -26 -26 -26 -26 -25 -25 -24 -24 -23 -23 -23 -22 -22 -21 -21
-27 -27 -27 -27 -27 -27 -27 -27 -27 -27 -27 -27 -27 -27 -27 -27 -27 -27 -27 -27 -29 -29 -29 -29 -30 -30 -30 -30 -30 -30 -29 -29 -29 -28 -28 -28 -27 -27 -27 -27 -26 -26 -26 -25 -25 -24 -24 -23 -23 -23 -22 -22 -21 -21
-27 -27 -27 -27 -27 -27 -27 -27 -27 -27 -27 -27 -27 -27 -27 -27 -27 -27 -27 -27 -28 -29 -30 -30 -30 -30 -30 -30 -31 -30 -29 -29 -29 -28 -28 -28 -28 -27 -27 -27 -27 -26 -26 -25 -24 -23 -24 -24 -23 -23 -22 -22 -21 -21
-28 -27 -27 -27 -27 -27 -27 -27 -27 -27 -27 -27 -27 -27 -27 -27 -27 -27 -28 -28 -29 -30 -30 -30 -30 -30 -31 -30 -30 -30 -30 -29 -29 -28 -28 -27 -27 -27 -27 -27 -27 -26 -26 -25 -24 -24 -24 -24 -24 -24 -23 -23 -22 -22
-28 -28 -28 -28 -28 -28 -28 -28 -28 -28 -28 -28 -28 -28 -28 -28 -27 -27 -28 -29 -30 -30 -30 -30 -30 -30 -30 -31 -30 -30 -30 -29 -29 -28 -27 -27 -27 -27 -27 -27 -26 -26 -26 -25 -25 -25 -24 -24 -24 -24 -24 -23 -23 -23
-30 -29 -29 -29 -28 -28 -28 -29 -28 -28 -28 -28 -28 -28 -28 -28 -27 -27 -29 -29 -30 -30 -30 -30 -30 -30 -31 -31 -30 -30 -30 -29 -29 -28 -28 -27 -27 -27 -26 -26 -26 -26 -25 -25 -25 -25 -24 -24 -24 -24 -23 -23 -23 -23
-30 -30 -29 -29 -29 -29 -29 -29 -29 -29 -28 -28 -28 -28 -28 -28 -28 -28 -29 -29 -30 -30 -30 -30 -30 -31 -31 -31 -31 -30 -30 -28 -29 -28 -28 -28 -27 -27 -26 -26 -26 -26 -25 -25 -25 -25 -25 -24 -24 -24 -24 -24 -24 -23
-30 -30 -29 -29 -29 -29 -30 -30 -29 -29 -29 -29 -29 -28 -28 -28 -29 -29 -29 -30 -30 -30 -30 -30 -31 -31 -32 -31 -31 -30 -29 -29 -28 -28 -28 -28 -27 -27 -26 -26 -26 -26 -25 -25 -25 -25 -25 -25 -25 -24 -24 -24 -24 -23
-29 -29 -29 -29 -29 -29 -30 -30 -29 -29 -29 -29 -29 -28 -29 -29 -29 -30 -30 -30 -30 -30 -30 -31 -31 -31 -31 -30 -30 -29 -29 -28 -28 -28 -28 -28 -27 -27 -26 -26 -26 -26 -25 -25 -25 -25 -25 -25 -24 -24 -24 -24 -24 -24
-29 -29 -29 -29 -29 -29 -30 -30 -30 -29 -29 -29 -29 -29 -29 -29 -30 -30 -29 -29 -29 -30 -30 -30 -30 -31 -30 -29 -29 -28 -28 -28 -28 -28 -27 -27 -27 -27 -26 -26 -26 -26 -26 -25 -25 -25 -25 -25 -25 -25 -24 -24 -24 -24
-29 -29 -29 -29 -29 -30 -30 -30 -29 -29 -29 -30 -30 -29 -29 -29 -29 -29 -29 -29 -29 -29 -29 -29 -29 -29 -28 -28 -28 -28 -28 -28 -27 -27 -27 -27 -26 -26 -26 -26 -25 -25 -25 -25 -25 -25 -25 -25 -25 -25 -24 -24 -24 -24
-29 -29 -29 -29 -30 -30 -30 -29 -29 -30 -30 -30 -30 -29 -29 -29 -29 -29 -29 -29 -29 -29 -29 -28 -28 -28 -28 -28 -28 -28 -28 -28 -28 -27 -27 -27 -26 -26 -25 -25 -25 -25 -25 -25 -25 -25 -25 -25 -25 -25 -25 -25 -25 -25
-29 -29 -29 -30 -30 -30 -30 -30 -30 -30 -30 -30 -30 -30 -29 -29 -29 -29 -28 -28 -28 -28 -28 -28 -28 -28 -28 -28 -28 -28 -27 -27 -27 -27 -27 -26 -26 -26 -25 -25 -25 -25 -25 -25 -26 -26 -26 -26 -26 -26 -26 -26 -26 -26
-30 -30 -30 -30 -30 -30 -30 -30 -30 -30 -30 -30 -30 -29 -29 -29 -29 -28 -28 -28 -28 -28 -28 -28 -28 -28 -28 -28 -28 -27 -27 -27 -27 -27 -27 -26 -26 -26 -26 -26 -26 -26 -26 -26 -26 -26 -26 -26 -26 -26 -26 -26 -26 -26
-30 -30 -30 -30 -30 -30 -30 -30 -30 -30 -30 -30 -30 -29 -29 -29 -28 -28 -28 -28 -28 -28 -28 -28 -28 -28 -28 -28 -27 -27 -27 -27 -27 -27 -26 -26 -26 -26 -26 -26 -26 -26 -26 -26 -26 -26 -26 -26 -26 -26 -26 -26 -26 -26
-30 -30 -30 -30 -30 -30 -30 -30 -30 -29 -30 -30 -30 -29 -29 -28 -28 -28 -28 -28 -28 -28 -28 -28 -27 -28 -27 -27 -27 -27 -27 -27 -27 -26 -26 -26 -26 -26 -26 -26 -26 -26 -26 -26 -26 -26 -26 -26 -26 -26 -27 -27 -27 -27
-30 -30 -30 -30 -30 -30 -30 -30 -30 -30 -30 -30 -30 -29 -29 -28 -28 -28 -28 -28 -28 -28 -28 -27 -27 -27 -27 -27 -27 -27 -27 -27 -27 -27 -26 -26 -26 -26 -26 -26 -26 -26 -26 -26 -26 -27 -27 -27 -28 -28 -28 -29 -29 -29
-29 -29 -30 -30 -30 -30 -30 -30 -30 -30 -30 -30 -29 -29 -28 -28 -28 -28 -28 -28 -27 -27 -27 -27 -27 -27 -27 -27 -27 -27 -27 -27 -26 -26 -26 -26 -26 -26 -26 -26 -26 -26 -26 -27 -27 -27 -27 -28 -28 -29 -29 -30 -30 -30
-30 -30 -30 -30 -30 -30 -30 -30 -30 -30 -29 -30 -29 -28 -28 -28 -27 -27 -27 -27 -27 -27 -27 -27 -27 -27 -27 -27 -27 -27 -27 -26 -26 -26 -26 -26 -26 -26 -26 -26 -26 -26 -27 -27 -27 -28 -28 -29 -30 -30 -30 -30 -31 -31
-30 -30 -30 -30 -30 -30 -30 -30 -30 -30 -30 -30 -29 -28 -27 -27 -27 -27 -27 -27 -27 -27 -27 -27 -27 -27 -27 -26 -26 -26 -26 -26 -26 -26 -26 -26 -26 -26 -26 -26 -27 -27 -28 -28 -29 -29 -30 -30 -30 -31 -31 -31 -31 -31
-30 -30 -30 -30 -30 -30 -30 -30 -30 -30 -30 -29 -29 -29 -28 -27 -26 -26 -26 -26 -27 -27 -27 -26 -26 -26 -26 -26 -26 -26 -26 -26 -25 -25 -26 -26 -26 -26 -26 -27 -27 -28 -28 -29 -29 -30 -30 -31 -31 -31 -31 -31 -31 -32
-30 -30 -30 -30 -30 -30 -30 -30 -29 -29 -29 -29 -29 -28 -28 -27 -27 -26 -26 -26 -26 -26 -26 -26 -26 -26 -26 -26 -26 -25 -25 -25 -25 -25 -26 -26 -26 -26 -27 -27 -28 -28 -29 -29 -30 -30 -31 -31 -31 -31 -31 -32 -33 -33
-30 -30 -29 -29 -29 -29 -29 -29 -29 -29 -29 -28 -28 -28 -27 -27 -27 -27 -27 -26 -26 -26 -26 -26 -26 -26 -25 -25 -25 -25 -25 -25 -25 -26 -26 -26 -27 -27 -27 -28 -28 -29 -29 -30 -31 -31 -31 -31 -32 -32 -33 -34 -34 -35
-29 -29 -29 -29 -29 -29 -29 -29 -28 -28 -28 -28 -28 -27 -27 -27 -27 -27 -26 -26 -26 -26 -25 -25 -25 -25 -25 -25 -25 -25 -25 -25 -26 -26 -27 -27 -27 -27 -28 -28 -29 -30 -30 -31 -31 -31 -32 -32 -32 -33 -34 -35 -35 -36
-29 -29 -29 -29 -29 -29 -28 -28 -28 -28 -28 -27 -27 -27 -27 -27 -26 -26 -26 -26 -25 -25 -25 -25 -25 -25 -25 -25 -25 -25 -26 -26 -26 -27 -27 -27 -27 -28 -28 -29 -30 -30 -31 -31 -31 -32 -32 -32 -33 -34 -35 -35 -36 -36
-28 -28 -28 -28 -28 -28 -28 -28 -28 -27 -27 -27 -27 -26 -26 -26 -26 -26 -25 -25 -25 -25 -25 -25 -25 -25 -25 -25 -25 -26 -26 -26 -27 -27 -27 -27 -28 -28 -29 -30 -30 -31 -31 -31 -32 -32 -33 -34 -35 -35 -36 -36 -37 -37
-28 -28 -28 -28 -28 -28 -28 -27 -27 -27 -26 -26 -26 -26 -26 -26 -25 -25 -25 -25 -25 -25 -25 -25 -25 -25 -25 -25 -26 -26 -26 -27 -27 -27 -28 -28 -28 -29 -30 -30 -31 -31 -32 -32 -32 -33 -34 -35 -35 -36 -36 -37 -37 -38
-27 -27 -27 -27 -27 -27 -27 -26 -26 -26 -26 -26 -26 -25 -25 -25 -25 -25 -24 -24 -25 -25 -25 -25 -25 -25 -26 -26 -26 -27 -27 -27 -27 -28 -28 -28 -29 -30 -30 -31 -31 -32 -32 -32 -33 -34 -35 -35 -36 -36 -37 -37 -37 -37
-27 -27 -26 -25 -25 -25 -25 -25 -25 -25 -25 -25 -25 -25 -24 -24 -24 -24 -24 -25 -25 -25 -25 -26 -26 -26 -26 -27 -27 -27 -27 -28 -28 -28 -29 -29 -29 -30 -31 -31 -31 -32 -32 -33 -34 -35 -35 -36 -36 -37 -37 -37 -37 -37
-27 -26 -25 -25 -24 -24 -24 -24 -24 -24 -24 -24 -24 -24 -24 -24 -24 -25 -25 -25 -25 -26 -26 -26 -26 -27 -27 -27 -27 -27 -28 -28 -28 -29 -29 -29 -30 -31 -31 -31 -32 -32 -33 -34 -35 -35 -36 -36 -37 -37 -37 -37 -38 -38
-26 -25 -25 -24 -24 -24 -24 -24 -24 -24 -24 -24 -24 -24 -24 -24 -25 -25 -25 -25 -26 -26 -26 -26 -26 -27 -27 -27 -27 -28 -28 -28 -29 -29 -29 -30 -31 -31 -31 -32 -32 -32 -33 -34 -35 -35 -36 -36 -37 -37 -37 -37 -38 -38
-25 -25 -25 -25 -25 -24 -24 -24 -24 -24 -24 -24 -24 -24 -25 -25 -25 -25 -25 -26 -26 -26 -26 -26 -27 -27 -27 -27 -28 -28 -29 -29 -29 -29 -30 -31 -31 -31 -32 -32 -32 -33 -34 -35 -35 -36 -36 -37 -37 -37 -37 -38 -38 -38
Height
5427 5433 5439 5445 5450 5456 5461 5466 5471 5476 5480 5484 5488 5491 5494 5496 5497 5498 5497 5495 5494 5492 5491 5489 5488 5486 5484 5483 5482 5483 5484 5485 5488 5489 5489 5486 5486 5490 5493 5498 5504 5508 5513 5516 5519 5522 5528 5529 5533 5536 5537 5539 5542 5543
5416 5423 5430 5436 5442 5448 5453 5459 5463 5468 5473 5477 5481 5485 5488 5490 5491 5491 5491 5489 5487 5486 5487 5485 5484 5482 5481 5479 5479 5479 5482 5483 5486 5488 5489 5488 5488 5491 5494 5497 5501 5506 5510 5513 5518 5521 5524 5526 5528 5530 5531 5534 5537 5539
5406 5413 5420 5426 5433 5439 5445 5450 5456 5461 5466 5471 5475 5478 5482 5484 5485 5485 5485 5484 5482 5482 5482 5482 5482 5480 5479 5478 5477 5478 5479 5481 5484 5486 5488 5489 5490 5492 5493 5495 5498 5502 5506 5510 5513 5518 5519 5521 5523 5525 5527 5529 5531 5534
5396 5403 5410 5417 5424 5431 5437 5443 5449 5454 5459 5464 5468 5472 5475 5477 5479 5479 5479 5478 5479 5478 5478 5478 5477 5477 5477 5476 5475 5475 5477 5479 5482 5485 5487 5489 5490 5492 5493 5494 5496 5499 5503 5505 5510 5514 5514 5514 5517 5520 5522 5524 5526 5528
5385 5393 5400 5407 5414 5422 5429 5435 5441 5447 5452 5457 5462 5465 5469 5471 5473 5473 5472 5472 5473 5475 5474 5473 5472 5472 5473 5473 5473 5473 5474 5477 5480 5483 5486 5488 5490 5491 5492 5493 5495 5498 5500 5503 5508 5510 5510 5512 5515 5517 5518 5520 5522 5523
5375 5382 5390 5397 5405 5413 5420 5426 5434 5440 5445 5451 5455 5459 5462 5465 5466 5467 5468 5469 5469 5469 5469 5468 5467 5467 5467 5468 5469 5470 5472 5475 5479 5481 5484 5486 5489 5490 5491 5493 5494 5496 5498 5502 5505 5507 5509 5511 5513 5515 5516 5517 5519 5520
5365 5373 5381 5389 5396 5403 5411 5419 5426 5433 5439 5444 5449 5453 5456 5458 5460 5462 5464 5464 5464 5463 5462 5461 5462 5461 5460 5461 5463 5465 5469 5473 5478 5480 5483 5485 5488 5489 5491 5492 5493 5494 5496 5500 5503 5505 5507 5509 5511 5513 5514 5515 5516 5518
5359 5368 5376 5383 5391 5396 5403 5412 5420 5426 5433 5439 5444 5448 5451 5452 5454 5456 5458 5458 5458 5458 5457 5456 5454 5453 5452 5452 5456 5462 5467 5472 5476 5479 5481 5484 5486 5488 5490 5491 5491 5493 5497 5499 5502 5504 5505 5507 5509 5510 5511 5513 5513 5514
5352 5362 5371 5379 5386 5392 5399 5406 5414 5422 5428 5434 5439 5443 5446 5448 5450 5451 5452 5452 5453 5455 5453 5452 5451 5450 5450 5453 5457 5462 5467 5472 5476 5479 5482 5484 5485 5487 5489 5490 5491 5493 5496 5499 5501 5503 5505 5506 5507 5508 5509 5509 5510 5510
5348 5357 5366 5374 5382 5389 5395 5403 5410 5418 5425 5430 5436 5439 5442 5444 5446 5448 5448 5448 5447 5448 5450 5450 5451 5451 5453 5454 5459 5464 5470 5474 5477 5480 5482 5483 5485 5485 5487 5488 5490 5493 5495 5498 5500 5501 5502 5503 5503 5504 5504 5504 5504 5504
5343 5353 5362 5371 5379 5386 5393 5400 5407 5414 5422 5427 5431 5437 5440 5442 5444 5444 5444 5445 5446 5447 5449 5450 5451 5452 5455 5459 5463 5468 5472 5475 5478 5481 5481 5483 5484 5485 5486 5488 5491 5493 5495 5496 5497 5497 5498 5498 5498 5498 5498 5498 5497 5497
5339 5349 5359 5368 5376 5384 5391 5399 5406 5414 5421 5426 5431 5434 5436 5438 5439 5440 5441 5444 5446 5448 5450 5451 5453 5455 5459 5463 5468 5471 5473 5476 5478 5479 5480 5481 5484 5485 5486 5488 5490 5492 5492 5493 5493 5493 5492 5492 5492 5491 5490 5489 5489 5488
5337 5347 5357 5366 5375 5383 5391 5398 5406 5413 5419 5424 5428 5431 5434 5436 5437 5439 5442 5446 5448 5451 5453 5455 5458 5461 5464 5466 5470 5472 5474 5476 5477 5478 5479 5481 5483 5485 5485 5486 5487 5487 5487 5487 5486 5486 5485 5484 5483 5482 5480 5479 5478 5477
5336 5347 5357 5367 5375 5383 5391 5399 5407 5413 5418 5422 5426 5429 5432 5434 5437 5440 5444 5448 5451 5453 5455 5457 5460 5463 5467 5468 5470 5473 5474 5475 5476 5477 5479 5480 5481 5482 5482 5483 5483 5483 5482 5481 5481 5480 5479 5477 5476 5475 5473 5471 5470 5468
5340 5350 5360 5369 5377 5385 5393 5400 5407 5413 5417 5422 5426 5428 5430 5433 5437 5441 5446 5450 5453 5455 5458 5460 5463 5466 5467 5469 5471 5473 5474 5475 5475 5476 5476 5477 5478 5479 5479 5479 5478 5478 5477 5477 5477 5475 5473 5471 5469 5467 5465 5463 5461 5458
5346 5354 5363 5372 5380 5388 5396 5402 5408 5413 5418 5422 5425 5427 5429 5434 5438 5443 5448 5452 5455 5458 5460 5463 5465 5467 5468 5470 5471 5472 5472 5472 5473 5474 5474 5475 5476 5476 5476 5476 5476 5475 5474 5473 5471 5468 5466 5463 5461 5458 5455 5453 5450 5447
5352 5361 5368 5376 5384 5391 5398 5405 5410 5414 5416 5421 5423 5426 5430 5435 5440 5445 5449 5453 5456 5459 5462 5464 5465 5466 5468 5468 5469 5470 5471 5472 5472 5473 5473 5474 5474 5474 5474 5473 5472 5470 5468 5465 5463 5460 5457 5454 5451 5448 5444 5441 5438 5435
5360 5367 5375 5381 5388 5394 5400 5405 5410 5412 5418 5421 5424 5428 5432 5436 5441 5446 5450 5454 5457 5459 5462 5463 5464 5465 5466 5468 5469 5469 5469 5470 5470 5471 5471 5471 5471 5470 5469 5468 5466 5464 5461 5459 5456 5452 5448 5445 5441 5437 5433 5429 5425 5421
5370 5375 5381 5387 5393 5398 5402 5406 5410 5414 5419 5422 5426 5429 5434 5438 5443 5447 5451 5454 5457 5460 5462 5463 5463 5464 5465 5466 5467 5468 5468 5469 5469 5469 5469 5468 5467 5466 5464 5463 5461 5458 5454 5450 5446 5442 5438 5433 5429 5424 5420 5416 5411 5407
5375 5381 5385 5390 5395 5400 5403 5407 5411 5417 5421 5425 5428 5431 5435 5439 5444 5448 5451 5454 5456 5458 5460 5461 5462 5462 5463 5464 5466 5467 5467 5468 5467 5467 5466 5465 5463 5462 5460 5457 5454 5451 5446 5442 5437 5432 5427 5422 5416 5411 5406 5400 5395 5390
5381 5385 5389 5393 5397 5402 5406 5410 5415 5419 5423 5426 5429 5432 5436 5439 5443 5447 5450 5453 5455 5457 5458 5459 5460 5461 5463 5464 5465 5465 5465 5465 5464 5463 5462 5461 5459 5457 5454 5451 5446 5442 5437 5432 5426 5421 5416 5410 5404 5398 5393 5387 5381 5375
5386 5390 5394 5398 5401 5405 5410 5415 5418 5421 5425 5428 5431 5434 5437 5440 5444 5447 5450 5452 5454 5456 5457 5458 5460 5461 5462 5463 5463 5463 5463 5462 5462 5460 5459 5457 5454 5451 5447 5443 5438 5433 5428 5422 5416 5411 5404 5397 5391 5385 5378 5371 5364 5357
5391 5395 5399 5402 5406 5410 5415 5418 5421 5424 5427 5430 5432 5435 5438 5441 5444 5447 5449 5451 5453 5454 5456 5458 5459 5460 5461 5461 5461 5461 5460 5459 5458 5456 5454 5452 5448 5445 5440 5435 5430 5424 5418 5412 5406 5398 5391 5385 5377 5370 5363 5354 5347 5340
5397 5400 5404 5407 5410 5414 5417 5420 5423 5426 5428 5431 5433 5436 5439 5441 5444 5446 5448 5450 5452 5454 5456 5457 5458 5458 5458 5458 5458 5457 5457 5455 5454 5451 5449 5445 5440 5436 5431 5425 5420 5414 5407 5400 5393 5386 5378 5371 5363 5354 5346 5338 5331 5325
5402 5404 5408 5410 5413 5416 5419 5421 5424 5426 5428 5431 5433 5436 5438 5441 5443 5445 5448 5450 5452 5453 5454 5455 5455 5456 5456 5456 5455 5454 5453 5451 5448 5445 5441 5437 5432 5427 5422 5416 5409 5402 5395 5388 5380 5373 5365 5357 5348 5339 5332 5325 5319 5314
5403 5406 5409 5411 5413 5416 5417 5420 5422 5424 5427 5429 5432 5435 5438 5441 5443 5445 5447 5449 5450 5451 5452 5453 5453 5453 5453 5452 5451 5450 5448 5445 5442 5438 5433 5429 5423 5418 5412 5405 5398 5391 5383 5376 5368 5360 5351 5342 5334 5326 5320 5314 5309 5303
5403 5406 5408 5409 5411 5413 5415 5417 5420 5422 5425 5429 5432 5435 5438 5440 5442 5444 5445 5447 5448 5449 5450 5450 5450 5450 5449 5448 5446 5444 5442 5438 5434 5430 5425 5420 5414 5408 5401 5394 5387 5380 5372 5364 5355 5347 5338 5329 5321 5315 5309 5303 5298 5293
5401 5402 5405 5407 5409 5411 5413 5415 5417 5421 5425 5429 5432 5434 5436 5439 5441 5442 5444 5445 5446 5446 5447 5447 5446 5446 5444 5443 5440 5438 5435 5431 5426 5421 5416 5411 5404 5398 5390 5383 5375 5368 5360 5352 5343 5334 5325 5317 5311 5304 5298 5293 5287 5282
5397 5399 5401 5403 5406 5408 5410 5414 5417 5421 5425 5427 5430 5432 5435 5437 5438 5440 5441 5442 5443 5443 5443 5442 5442 5440 5438 5436 5434 5430 5427 5422 5418 5412 5407 5401 5394 5387 5380 5372 5364 5356 5348 5339 5330 5322 5314 5307 5300 5294 5288 5282 5277 5271
5394 5396 5398 5401 5404 5407 5411 5414 5417 5420 5423 5426 5428 5430 5432 5434 5435 5437 5437 5438 5438 5438 5438 5437 5436 5434 5432 5429 5426 5423 5418 5414 5409 5403 5397 5391 5384 5377 5370 5362 5354 5346 5337 5328 5319 5311 5303 5297 5290 5284 5278 5272 5267 5262
5392 5394 5396 5399 5403 5406 5409 5412 5415 5418 5421 5423 5425 5427 5429 5430 5431 5432 5433 5433 5434 5434 5433 5431 5430 5428 5425 5422 5418 5414 5410 5405 5399 5394 5388 5381 5374 5367 5360 5352 5343 5334 5325 5316 5308 5300 5293 5286 5280 5273 5268 5262 5257 5252
5391 5393 5396 5399 5402 5404 5407 5410 5412 5415 5417 5419 5421 5423 5424 5426 5427 5428 5429 5429 5429 5428 5427 5425 5423 5420 5417 5414 5410 5405 5401 5395 5390 5384 5378 5371 5364 5357 5349 5341 5332 5323 5314 5306 5298 5290 5283 5276 5270 5264 5258 5253 5247 5242
5390 5392 5395 5397 5400 5402 5405 5407 5409 5411 5413 5415 5417 5419 5421 5423 5423 5424 5424 5423 5422 5421 5420 5418 5415 5412 5409 5406 5401 5397 5391 5386 5380 5374 5368 5361 5354 5346 5338 5330 5321 5312 5303 5295 5288 5280 5274 5267 5261 5255 5249 5243 5237 5231
Wind_Speed
38 36 35 34 33 32 32 32 32 33 32 30 28 27 25 25 26 25 26 26 24 21 17 14 13 14 16 15 11 14 11 7 9 11 11 10 18 7 12 19 29 15 17 16 12 15 19 21 19 16 20 25 20 19
39 37 36 35 35 34 33 32 32 31 30 29 28 26 25 25 25 24 24 21 20 17 13 11 9 12 13 12 10 14 12 8 7 4 1 8 8 10 9 18 28 26 18 17 13 12 18 19 19 20 19 20 20 20
39 38 38 38 36 34 33 32 31 30 29 28 27 26 26 24 24 24 22 19 16 14 12 8 8 9 9 9 8 12 13 15 10 7 7 7 7 8 10 13 19 23 17 15 14 10 17 25 25 19 18 21 20 20
42 40 38 39 39 37 35 33 31 29 29 27 27 26 25 24 23 22 22 21 15 12 12 13 9 9 11 7 10 8 15 18 13 12 11 7 8 9 8 11 14 17 19 16 16 16 13 19 20 20 22 20 19 19
42 41 39 39 39 39 37 35 32 30 28 28 28 26 25 23 22 20 20 17 11 10 10 15 15 13 6 14 12 8 14 19 15 13 13 9 7 6 7 8 9 13 16 20 19 8 7 13 15 13 13 13 14 19
40 39 39 39 39 41 41 38 34 30 29 28 27 25 23 22 21 21 17 8 9 15 17 14 17 19 19 18 9 13 15 19 17 14 16 11 8 5 6 8 8 10 11 14 7 9 8 9 11 11 7 8 14 15
38 37 36 34 35 38 41 39 36 32 30 28 26 24 22 20 20 18 15 16 11 10 19 21 17 20 19 22 23 14 18 20 18 13 13 11 10 8 5 6 9 14 13 11 11 10 9 9 11 12 6 10 7 9
37 35 34 33 29 27 35 36 35 33 30 28 24 21 19 19 19 15 14 12 17 24 22 21 20 17 21 13 14 18 19 21 17 12 10 8 13 12 10 11 7 14 15 13 11 10 9 8 6 6 8 13 11 15
36 35 33 30 29 26 30 33 32 31 29 26 21 19 19 18 14 12 12 16 17 20 19 17 6 2 9 14 17 19 20 16 15 13 10 9 5 11 9 13 12 12 15 11 9 8 7 6 6 8 9 10 11 13
37 35 33 32 30 27 29 31 30 28 26 24 21 20 17 14 12 13 20 17 13 10 11 8 7 5 14 19 20 19 19 15 14 11 9 5 8 19 6 13 16 17 14 15 14 15 16 16 14 15 14 15 16 18
38 36 34 32 31 29 30 29 28 28 27 24 22 17 15 14 14 16 15 10 8 7 10 8 7 16 21 21 24 19 14 10 14 8 4 3 12 11 3 10 13 14 15 17 18 19 18 19 21 22 23 23 24 26
37 36 35 34 32 31 29 29 28 26 24 21 18 17 14 11 11 10 10 11 12 13 11 17 20 21 21 19 15 12 5 5 4 5 5 11 14 11 6 7 6 8 11 14 17 19 21 23 25 26 28 30 31 33
36 39 38 35 34 33 32 30 26 26 23 22 19 15 12 10 9 10 12 12 14 15 17 18 18 20 16 14 13 9 5 6 8 4 7 14 12 14 13 12 12 15 18 20 21 22 22 24 26 28 29 30 32 34
41 42 39 37 36 36 34 31 32 30 28 21 14 11 9 9 13 17 17 22 21 20 18 17 16 19 17 12 9 8 3 2 1 3 7 8 10 12 14 16 19 20 20 19 18 19 20 22 23 24 26 27 28 29
43 41 39 39 39 35 37 39 37 30 20 11 12 11 13 16 19 21 26 25 21 20 18 19 14 12 10 10 5 5 4 6 6 6 6 8 10 13 16 18 18 18 16 16 18 21 23 25 27 29 30 30 31 33
43 42 40 37 37 40 39 36 31 26 23 13 10 15 18 21 22 27 26 22 19 17 13 11 9 8 6 6 7 7 7 8 8 7 5 6 7 9 12 14 15 16 18 21 24 25 26 27 28 30 31 33 36 38
38 38 39 39 39 36 34 30 25 24 16 10 16 20 23 24 26 29 24 19 17 14 11 8 8 8 9 8 8 6 5 7 7 6 5 4 4 5 8 10 14 18 20 23 26 27 28 28 28 29 31 32 34 35
41 38 36 35 35 33 29 26 24 15 12 18 20 21 24 25 27 26 21 19 15 12 9 2 4 7 8 7 6 6 3 3 2 0 2 6 9 11 13 16 18 20 21 23 25 26 27 28 29 30 32 34 36 38
35 32 30 28 27 27 27 22 16 17 22 20 21 22 23 26 27 23 20 17 15 11 7 3 6 8 9 7 5 3 2 0 3 7 9 10 12 13 14 16 18 21 25 28 30 32 34 35 36 36 37 38 40 41
25 25 27 28 26 24 22 22 25 25 22 22 21 22 22 23 23 21 21 18 13 10 8 6 6 6 6 6 6 4 2 5 7 8 9 9 12 14 18 22 26 29 31 32 34 36 37 39 40 42 44 44 42 42
29 28 27 26 26 27 26 29 29 26 22 20 20 22 22 22 23 24 22 19 15 13 10 7 4 7 7 5 3 4 6 6 8 8 11 13 18 21 24 27 30 31 32 35 37 39 40 43 45 42 42 44 46 47
21 22 29 29 28 31 32 30 27 26 24 20 21 20 21 22 22 21 19 16 15 11 8 8 8 6 4 5 4 5 6 6 9 12 15 20 23 25 28 31 33 35 37 39 40 42 46 44 43 45 47 49 51 53
27 28 29 31 33 32 29 25 22 21 19 18 18 18 18 19 19 17 15 13 11 11 10 7 5 5 5 5 5 5 6 9 13 17 21 24 25 27 31 34 36 39 41 42 45 46 44 45 47 49 51 53 51 48
26 27 28 29 28 27 25 23 21 20 18 18 18 17 16 16 15 13 12 12 11 8 7 7 6 6 5 4 4 7 10 14 18 21 24 27 30 34 36 38 40 42 43 46 46 45 46 48 51 52 51 47 42 38
23 25 28 25 23 23 22 19 18 17 17 17 17 16 15 16 16 14 12 10 8 9 9 8 7 6 5 6 8 11 15 19 22 25 29 32 36 38 39 41 42 44 47 47 46 47 50 51 52 49 43 39 37 36
17 19 20 20 20 19 18 17 16 16 16 17 18 18 17 15 12 10 10 10 10 10 9 8 7 7 8 10 13 16 20 23 25 29 33 36 39 42 43 44 44 47 47 47 49 51 53 52 48 43 39 37 37 36
17 17 18 20 21 21 21 20 19 19 21 22 22 18 15 12 11 11 11 11 10 10 9 8 8 9 11 15 18 21 24 27 30 34 37 39 42 44 45 45 47 48 48 50 52 54 53 49 43 40 39 38 37 35
16 19 21 22 21 22 21 21 22 26 26 23 18 15 12 12 12 11 11 10 10 9 8 8 10 12 17 20 22 25 28 31 35 38 40 42 45 46 46 48 49 49 51 53 55 55 50 45 41 40 39 37 37 36
17 19 21 20 20 20 22 25 27 24 21 18 16 15 13 13 13 12 11 11 10 10 11 12 14 17 19 22 25 28 32 36 38 40 42 44 47 47 48 50 50 52 54 56 56 52 46 43 42 41 39 38 37 35
15 15 18 19 22 23 23 22 21 21 19 17 16 16 14 14 14 14 14 13 13 13 13 15 17 18 22 25 29 31 36 40 41 42 44 46 48 48 50 51 52 54 57 57 53 48 45 43 42 40 39 37 35 33
12 15 18 21 22 21 21 20 20 19 18 18 18 18 18 18 18 17 16 15 13 14 16 18 20 23 26 30 33 36 40 43 43 45 46 48 49 50 51 52 55 57 58 55 49 46 45 43 41 39 38 37 35 35
15 17 20 21 21 22 22 22 22 21 21 22 22 21 21 21 20 18 16 16 17 19 20 22 25 28 31 33 37 40 43 44 45 46 47 49 49 51 53 54 57 59 57 50 47 46 44 42 40 39 38 38 38 37
17 18 19 20 20 21 22 23 24 24 24 24 22 21 19 19 19 19 20 21 22 23 24 26 29 31 34 38 41 43 44 44 45 47 48 49 50 52 53 56 59 58 52 48 47 45 43 42 41 40 40 40 41 41
Wind_Direction
235 235 237 237 236 236 235 235 236 239 240 245 250 255 261 268 275 283 293 302 303 301 308 316 319 317 311 302 269 232 240 227 237 263 290 73 157 174 182 195 204 216 221 226 228 241 238 234 254 276 244 241 249 246
231 233 235 236 236 238 239 238 239 240 242 245 248 252 257 264 273 282 292 298 290 294 303 319 336 339 324 316 271 227 219 197 220 247 288 118 145 181 189 196 208 221 224 212 208 227 234 253 263 271 255 244 243 241
234 233 233 234 235 236 238 239 239 239 241 242 245 249 254 260 271 280 291 283 273 276 287 300 318 326 318 350 299 242 206 193 187 169 150 141 153 184 192 202 207 214 216 218 221 233 251 252 262 241 236 236 237 230
237 238 237 236 234 234 235 236 236 235 236 237 239 245 250 258 268 280 285 283 275 260 274 289 301 294 312 346 344 274 208 200 186 173 171 153 135 166 174 198 205 202 210 222 225 221 255 222 222 222 222 229 232 227
236 237 237 236 233 230 229 229 230 231 230 232 235 240 248 257 266 275 272 273 269 258 277 281 288 273 288 334 312 299 209 203 194 185 182 173 161 154 175 194 205 203 208 217 188 208 213 190 226 220 224 229 223 223
227 226 228 228 228 226 224 222 223 223 224 226 231 236 245 254 263 273 264 227 258 281 263 297 273 269 274 283 290 306 209 195 177 181 180 180 174 147 185 200 212 210 190 182 194 193 185 198 205 215 221 214 209 223
213 213 213 215 218 220 221 218 214 213 217 221 226 235 244 252 263 267 252 230 246 259 283 284 287 279 267 269 277 239 200 185 184 176 174 178 186 187 199 201 214 219 214 173 174 181 188 200 206 209 218 190 200 209
206 205 206 207 206 208 209 210 210 207 210 215 222 231 238 249 256 258 261 269 268 267 275 282 295 276 276 249 198 184 177 177 188 169 148 181 196 200 218 221 254 218 161 159 171 168 171 183 197 215 212 212 214 217
202 201 202 201 202 204 201 200 203 207 205 207 214 220 230 237 242 252 276 271 267 264 269 279 290 260 165 163 163 159 169 168 166 162 179 186 190 189 197 214 190 193 172 163 180 181 194 225 241 249 254 247 246 253
202 200 200 198 198 199 194 196 195 198 201 196 204 215 219 223 233 243 265 274 258 239 260 210 206 166 154 143 137 144 145 157 163 168 153 133 181 198 196 161 188 199 220 217 233 241 252 259 258 263 263 260 264 264
198 197 196 193 193 193 188 189 184 189 193 191 198 196 205 213 229 249 258 232 203 175 179 193 196 153 138 135 143 148 143 151 187 201 230 199 198 210 167 139 167 196 214 229 239 246 253 263 267 268 267 265 265 270
192 190 186 185 186 182 180 178 181 183 184 184 184 197 207 228 244 242 205 181 158 160 155 142 131 132 134 137 144 160 175 217 200 240 223 198 185 206 222 232 236 241 245 252 260 264 269 271 270 272 275 274 272 270
182 180 178 178 175 171 171 170 172 173 174 183 192 201 216 235 232 186 169 155 148 145 132 144 136 142 152 153 143 177 187 192 187 180 180 194 198 214 245 265 282 291 294 296 296 290 282 278 276 275 276 277 277 276
169 168 169 167 166 167 166 163 163 163 179 191 186 201 211 200 170 165 154 141 135 135 140 149 155 153 144 150 138 168 157 135 134 179 206 208 222 236 257 274 282 283 282 281 276 278 281 283 283 283 282 281 281 282
157 158 158 161 165 162 159 160 170 176 166 181 193 193 177 168 165 156 151 145 141 139 138 143 144 160 170 165 167 191 232 234 229 239 232 237 249 257 262 265 269 273 273 282 289 291 289 286 287 287 286 284 282 282
151 155 158 161 157 155 159 172 180 179 170 166 190 184 166 167 162 161 160 156 151 146 158 154 160 166 185 205 230 239 237 236 235 243 243 246 262 265 269 269 271 276 282 289 293 294 293 293 292 292 291 289 288 287
149 150 147 146 149 154 167 176 179 166 148 197 189 175 167 164 162 169 171 167 160 155 161 176 192 206 209 218 224 225 242 243 245 255 270 285 287 282 283 283 285 291 296 299 301 302 301 300 297 295 293 291 290 289
142 146 152 158 162 165 172 178 169 156 188 188 176 171 168 166 165 170 174 171 170 173 168 184 216 197 198 207 226 255 239 208 193 132 320 316 317 317 316 311 307 305 305 305 303 302 302 301 302 301 298 294 291 289
139 142 147 152 160 170 169 164 175 182 177 170 167 165 170 171 173 176 178 177 179 180 197 233 198 203 213 228 231 204 164 132 315 320 321 321 318 317 317 318 315 315 316 316 315 312 311 309 307 305 303 302 301 297
149 150 150 152 163 175 176 180 169 167 162 156 151 158 165 173 182 189 191 194 202 214 237 259 254 234 214 192 172 163 284 317 316 316 318 325 324 324 327 327 321 316 315 314 311 310 311 309 308 308 307 304 302 300
151 156 161 166 162 155 156 153 150 147 154 159 159 161 166 174 184 195 206 215 221 229 244 249 219 178 167 175 227 286 300 305 311 321 328 327 329 326 322 321 322 322 320 316 314 313 311 310 310 308 306 304 303 301
153 160 158 153 152 152 152 153 157 161 159 171 165 168 170 176 187 197 204 210 220 231 228 190 180 182 209 246 265 282 299 319 328 328 327 326 325 324 325 325 325 323 321 318 316 314 313 313 312 309 308 307 305 302
145 150 154 155 156 157 160 163 165 166 168 173 175 177 178 180 186 192 202 215 213 187 183 191 209 223 230 253 279 295 317 326 326 325 324 324 324 325 327 327 325 322 320 317 316 316 316 315 313 313 311 309 307 306
151 158 163 164 163 166 167 170 173 178 181 185 187 188 191 193 199 204 192 181 185 194 206 206 213 234 247 257 278 307 319 320 320 322 327 330 332 331 330 327 324 322 319 319 319 319 318 317 317 315 313 311 309 307
156 164 169 172 175 176 180 183 189 194 199 199 197 199 196 184 181 185 188 193 199 197 206 222 229 225 241 276 300 309 313 314 317 326 332 333 332 331 329 326 324 322 321 321 321 321 321 321 319 316 314 311 309 308
161 166 172 180 190 196 202 203 202 204 202 195 190 182 179 185 194 200 195 195 203 216 221 220 228 251 277 295 305 308 312 316 324 329 330 330 331 329 328 325 325 323 323 323 324 324 323 322 319 317 315 313 310 308
181 178 186 195 201 206 208 209 206 202 193 183 181 182 188 199 201 200 201 211 215 215 222 234 258 281 297 306 308 310 315 322 326 327 328 329 329 328 327 326 325 325 325 325 326 325 325 322 319 317 316 313 311 310
193 196 199 202 205 207 205 203 196 184 181 183 185 193 197 197 204 209 207 208 217 226 238 260 282 297 304 308 313 317 318 323 326 326 325 327 327 327 327 326 326 326 326 327 327 326 324 322 320 319 317 315 313 310
199 199 199 199 199 198 192 184 180 181 186 192 195 196 197 205 205 202 210 216 226 243 259 274 288 298 304 312 316 316 320 323 324 323 324 326 327 327 327 327 327 327 327 327 328 327 325 323 321 320 318 316 315 313
188 185 183 180 179 180 182 186 190 193 196 194 193 195 198 201 208 213 218 227 236 249 267 283 295 303 307 310 313 315 320 322 322 322 324 326 326 327 327 327 327 327 328 328 328 327 325 323 322 320 319 317 315 313
181 182 185 188 190 189 189 189 189 189 189 191 193 197 204 212 217 223 230 240 251 266 276 290 297 302 306 309 312 314 318 320 321 321 323 325 325 327 327 327 327 328 328 328 328 327 325 324 323 321 320 319 316 313
178 178 178 178 181 184 187 189 191 193 196 198 202 207 214 220 226 235 244 255 264 275 286 294 298 302 306 308 311 315 318 318 318 320 324 325 326 327 327 327 327 328 328 329 328 327 327 326 325 323 321 319 316 314
192 188 188 190 192 195 197 198 198 201 205 209 214 221 227 235 241 248 255 263 271 280 286 291 297 303 306 310 314 316 316 317 319 321 323 325 326 326 327 327 327 328 329 329 328 328 327 326 325 324 322 320 319 317